Regional Weather Roundup
Issued by NWS

Home | Current Version | Previous Version | Text Only | Print | Product List | Glossary On
Versions: 1 2 3 4 5 6 7 8 9 10 11 12 13 14 15 16 17 18 19 20 21 22 23 24 25 26 27
000
ASUS45 KREV 170110
RWRNV
NEVADA REGIONAL WEATHER ROUNDUP
NATIONAL WEATHER SERVICE RENO NV
500 PM PST MON JAN 16 2017

NOTE: "FAIR" INDICATES FEW OR NO CLOUDS BELOW 12,000 FEET WITH NO
SIGNIFICANT WEATHER AND/OR OBSTRUCTIONS TO VISIBILITY.

NVZ001-003-004-170200-
WESTERN NEVADA

CITY           SKY/WX    TMP DP  RH WIND       PRES   REMARKS
RENO           PTCLDY    32  23  69 S9        30.27S
CARSON CITY    CLOUDY    28  23  80 E9        30.29S
MINDEN         FAIR      27  21  80 W5        30.28S
PYRAMID LAKE     N/A     34 N/A N/A S3          N/A
FALLON         NOT AVBL
LOVELOCK       PTCLDY    31  23  72 NE6       30.31R
HAWTHORNE        N/A     34  27  75 CALM      30.29F
$$

NVZ002-CAZ072-073-170200-
NORTHERN AND CENTRAL SIERRA

CITY           SKY/WX    TMP DP  RH WIND       PRES   REMARKS
S. LAKE TAHOE  PTCLDY    31  27  85 CALM      30.17R
TRUCKEE        CLEAR     25  19  80 CALM      30.22
SQUAW VLY 8000   N/A     25  23  93 NE1         N/A
SUSANVILLE     CLOUDY    32  27  80 E3        30.29S
MAMMOTH LAKES  FAIR      22   9  57 CALM      30.19R
BRIDGEPORT       N/A     22  13  68 CALM      30.18S
$$

NVZ030-031-036-170200-
NORTHERN NEVADA

CITY           SKY/WX    TMP DP  RH WIND       PRES   REMARKS
ELKO           CLOUDY    22  15  75 NW6       30.29R
WINNEMUCCA     CLOUDY    27  20  75 CALM      30.32R
WENDOVER       PTCLDY    27  19  74 CALM      30.29R
$$

NVZ035-037-170200-
CENTRAL NEVADA

CITY           SKY/WX    TMP DP  RH WIND       PRES   REMARKS
ELY            PTCLDY    11   8  88 S3        30.19S
$$

NVZ013-014-170200-
SOUTH CENTRAL NEVADA

CITY           SKY/WX    TMP DP  RH WIND       PRES   REMARKS
TONOPAH        CLEAR     30  16  56 NW18G25   30.17R
$$

NVZ017-020-022-170200-
SOUTHERN NEVADA

CITY           SKY/WX    TMP DP  RH WIND       PRES   REMARKS
LAS VEGAS      PTCLDY    54  15  21 NE10      30.07R
N. LAS VEGAS   FAIR      54  15  21 N8        30.08R
NELLIS AFB     PTCLDY    54  20  26 NW12      30.08R
HENDERSON      FAIR      51  19  28 NE5       30.10R
MERCURY        NOT AVBL
$$




USA.gov is the U.S. government's official web portal to all federal, state and local government web resources and services.